Flag for Bolivia Weather past 2 weeks in Santa Cruz, Bolivia

Now
73 °F

Clear.


Feels Like: 73 °F
Forecast: 68 / 87 °F
Wind: 6 mph from Southwest

Location: Viru-Viru

Current Time: Apr 25, 2015 at 10:56:36 PM

Latest Report: Apr 25, 2015 at 10:00 PM


Visibility: 4 mi

Pressure: 30.01 "Hg

Humidity: 83%

Dew point: 68 °F

Location of Santa CruzLocation

Historic Weather in Santa Cruz — Graph

°F

Santa Cruz temperature yesterday

Maximum temperature yesterday: 84 °F (at 1:00 PM)
Minimum temperature yesterday: 68 °F (at 12:00 AM)
Average temperature yesterday: 77 °F

Past Weeks' High & Low Weather Summary

 TemperatureHumidityPressure
High90 °F (Apr 11, 2:00 PM)100% (Apr 11, 4:00 AM)30.12 "Hg (Apr 11, 4:00 AM)
Low68 °F (Apr 18, 11:00 PM)55% (Apr 12, 3:00 PM)29.71 "Hg (Apr 19, 4:00 PM)
Average76 °F85%29.93 "Hg
* Reported Apr 10 10:00 PM — Apr 25 10:00 PM, Santa Cruz, Weather by CustomWeather, © 2015

Note: Actual official high and low records may vary slightly from our data, if they occured in-between our weather recording intervals... More about our weather records

Advertising

Santa Cruz weather history for previous 24 hours

 ConditionsComfort  
Time TempWeatherWind HumidityBarometerVisibility
10:00 PM
Sat, Apr 25
73 °FClear.6 mph83%30.01 "Hg4 mi
9:00 PM73 °FClear.6 mph83%30.01 "Hg4 mi
8:00 PM73 °FClear.6 mph89%29.98 "Hg4 mi
7:00 PM75 °FClear.5 mph83%29.95 "HgN/A
6:00 PM79 °FPassing clouds.5 mph70%29.95 "HgN/A
5:00 PM82 °FPassing clouds.8 mph62%29.95 "HgN/A
4:00 PM84 °FPassing clouds.9 mph55%29.95 "HgN/A
3:00 PM84 °FPassing clouds.10 mph55%29.98 "HgN/A
2:00 PM84 °FScattered clouds.14 mph55%30.01 "HgN/A
1:00 PM82 °FScattered clouds.16 mph58%30.07 "HgN/A
12:00 PM82 °FScattered clouds.14 mph58%30.09 "HgN/A
11:00 AM82 °FScattered clouds.15 mph55%30.12 "HgN/A
10:00 AM81 °FScattered clouds.16 mph58%30.12 "HgN/A
9:00 AM79 °FPartly sunny.16 mph58%30.12 "HgN/A
8:00 AM75 °FBroken clouds.16 mph69%30.12 "HgN/A
7:00 AM72 °FPartly sunny.16 mph78%30.09 "HgN/A
6:00 AM72 °FPartly cloudy.14 mph78%30.07 "HgN/A
5:00 AM73 °FPartly cloudy.13 mph74%30.07 "HgN/A
4:00 AM73 °FMostly cloudy.14 mph78%30.07 "HgN/A
3:00 AM73 °FMostly cloudy.14 mph78%30.07 "HgN/A
2:00 AM75 °FPartly cloudy.17 mph74%30.07 "HgN/A
1:00 AM75 °FPartly cloudy.17 mph74%30.07 "HgN/A
12:00 AM75 °FPartly cloudy.14 mph74%30.07 "HgN/A
11:00 PM
Fri, Apr 24
75 °FPartly cloudy.17 mph78%30.07 "HgN/A
10:00 PM77 °FPassing clouds.13 mph74%30.07 "HgN/A
Weather by CustomWeather, © 2015

See weather overviewHow to use our weather pages